Time_in_sec,gx,gy,gz
1314889332.20723891,0.25782698,-0.13031823,-0.95736221
1314889332.26036191,0.25782603,-0.13019853,-0.95737875
1314889332.30844736,0.25786039,-0.13012929,-0.95737891
1314889332.35921597,0.25756839,-0.13017590,-0.95745118
1314889332.40721154,0.25746923,-0.13028439,-0.95746309
1314889332.45624328,0.25761858,-0.13040382,-0.95740666
1314889332.50840807,0.25771757,-0.13037891,-0.95738341
1314889332.55633044,0.25799161,-0.13061054,-0.95727802
1314889332.60849476,0.25796723,-0.13067024,-0.95727645
1314889332.65626359,0.25788358,-0.13052014,-0.95731946
1314889332.70824957,0.25800363,-0.13051410,-0.95728794
1314889332.75622535,0.25802947,-0.13046813,-0.95728724
1314889332.80720901,0.25775239,-0.13005853,-0.95741761
1314889332.85534644,0.25764979,-0.12976130,-0.95748556
1314889332.90720701,0.25761395,-0.12979396,-0.95749077
1314889332.95531487,0.25747455,-0.12975719,-0.95753325
1314889333.00816655,0.25758052,-0.12960764,-0.95752500
1314889333.05551672,0.25757637,-0.12978011,-0.95750276
1314889333.10823226,0.25756904,-0.12966446,-0.95752040
1314889333.15636325,0.25750132,-0.12975385,-0.95752651
1314889333.20725226,0.25746392,-0.12982673,-0.95752668
1314889333.25621486,0.25748654,-0.12975250,-0.95753066
1314889333.30821490,0.25786488,-0.12986023,-0.95741424
1314889333.35527945,0.25786315,-0.12977626,-0.95742609
1314889333.40720034,0.25785138,-0.12978502,-0.95742807
1314889333.45627451,0.25800473,-0.12951403,-0.95742346
1314889333.50821257,0.25804373,-0.12941508,-0.95742633
1314889333.55526829,0.25805385,-0.12946702,-0.95741658
1314889333.60824323,0.25783465,-0.12936365,-0.95748960
1314889333.65518093,0.25776000,-0.12930312,-0.95751788
1314889333.70722604,0.25768028,-0.12926300,-0.95754475
1314889333.75617671,0.25747405,-0.12921779,-0.95760633
1314889333.80720186,0.25785349,-0.12955511,-0.95745864
1314889333.85601521,0.25766241,-0.12941858,-0.95752854
1314889333.90726399,0.25750502,-0.12940107,-0.95757325
1314889333.95615482,0.25750281,-0.12924842,-0.95759446
1314889334.00805235,0.25756158,-0.12906246,-0.95760374
1314889334.05531812,0.25759474,-0.12895874,-0.95760879
1314889334.10724735,0.25749801,-0.12886582,-0.95764731
1314889334.15614080,0.25756500,-0.12890429,-0.95762412
1314889334.20969415,0.25761483,-0.12892800,-0.95760752
1314889334.25542140,0.25777563,-0.12906466,-0.95754584
1314889334.30835271,0.25847176,-0.12896073,-0.95737217
1314889334.35531044,0.25863245,-0.12893277,-0.95733254
1314889334.40833449,0.25886700,-0.12886309,-0.95727853
1314889334.45530677,0.25882122,-0.12864385,-0.95732039
1314889334.50833368,0.25876802,-0.12873444,-0.95732260
1314889334.55624366,0.25888422,-0.12886039,-0.95727424
1314889334.60824203,0.25892060,-0.12892730,-0.95725539
1314889334.65586877,0.25874413,-0.12885374,-0.95731300
1314889334.70832872,0.25875037,-0.12879623,-0.95731906
1314889334.75542426,0.25875474,-0.12887649,-0.95730707
1314889334.80722904,0.25894110,-0.12903180,-0.95723576
1314889334.85573530,0.25892090,-0.12913476,-0.95722734
1314889334.90832615,0.25891276,-0.12914986,-0.95722750
1314889334.95632672,0.25883485,-0.12907900,-0.95725813
1314889335.00764489,0.25882227,-0.12898469,-0.95727425
1314889335.05634332,0.25890890,-0.12909289,-0.95723624
1314889335.10731459,0.25893571,-0.12895021,-0.95724821
1314889335.15562749,0.25908161,-0.12887238,-0.95721922
1314889335.20839000,0.25894297,-0.12877275,-0.95727014
1314889335.25621939,0.25881713,-0.12861595,-0.95732525
1314889335.30822563,0.25859735,-0.12860599,-0.95738598
1314889335.35921812,0.25854897,-0.12828449,-0.95744218
1314889335.40840816,0.25843469,-0.12831810,-0.95746853
1314889335.45552063,0.25809545,-0.12831384,-0.95756060
1314889335.50825143,0.25801403,-0.12824934,-0.95759118
1314889335.56033921,0.25804828,-0.12819356,-0.95758942
1314889335.60841417,0.25830277,-0.12817180,-0.95752372
1314889335.65968966,0.25842030,-0.12805237,-0.95750798
1314889335.70735145,0.25831515,-0.12810708,-0.95752904
1314889335.75533557,0.25795060,-0.12835726,-0.95759381
1314889335.80834723,0.25786944,-0.12848358,-0.95759873
1314889335.85536146,0.25762961,-0.12848619,-0.95766293
1314889335.90731573,0.25771188,-0.12847624,-0.95764213
1314889335.95533991,0.25768750,-0.12856011,-0.95763743
1314889336.00835919,0.25763259,-0.12853011,-0.95765623
1314889336.05622697,0.25748336,-0.12837031,-0.95771780
1314889336.10833263,0.25744343,-0.12827667,-0.95774108
1314889336.15521383,0.25728710,-0.12823128,-0.95778917
1314889336.20722866,0.25738508,-0.12798390,-0.95779593
1314889336.25521255,0.25737048,-0.12792167,-0.95780817
1314889336.30730581,0.25739929,-0.12828223,-0.95775220
1314889336.35621619,0.25740465,-0.12834651,-0.95774215
1314889336.40722561,0.25749819,-0.12818028,-0.95773927
1314889336.45530820,0.25754847,-0.12823948,-0.95771782
1314889336.51129842,0.25753908,-0.12822380,-0.95772244
1314889336.55521488,0.25783114,-0.12841544,-0.95761818
1314889336.61131740,0.25796717,-0.12814710,-0.95761749
1314889336.65523124,0.25779595,-0.12816234,-0.95766156
1314889336.70723987,0.25770199,-0.12839414,-0.95765580
1314889336.75674582,0.25785923,-0.12843134,-0.95760849
1314889336.80730820,0.25819760,-0.12877196,-0.95747156
1314889336.85531354,0.25832122,-0.12875166,-0.95744094
1314889336.91150808,0.25833629,-0.12873191,-0.95743953
1314889336.95542622,0.25818500,-0.12876103,-0.95747642
1314889337.00795007,0.25819025,-0.12851141,-0.95750855
1314889337.05523252,0.25830038,-0.12890015,-0.95742659
1314889337.10720420,0.25820886,-0.12887546,-0.95745459
1314889337.15606666,0.25829109,-0.12903714,-0.95741064
1314889337.20825386,0.25808121,-0.12904533,-0.95746613
1314889337.25603127,0.25808691,-0.12887648,-0.95748734
1314889337.30732870,0.25802174,-0.12928606,-0.95744968
1314889337.35603499,0.25789347,-0.12903932,-0.95751753
1314889337.40730739,0.25805547,-0.12916856,-0.95745645
1314889337.45530796,0.25772986,-0.12890779,-0.95757929
1314889337.51131606,0.25749173,-0.12876305,-0.95766282
1314889337.55588889,0.25769272,-0.12899865,-0.95757705
1314889337.60731983,0.25771892,-0.12888189,-0.95758572
1314889337.65634966,0.25792840,-0.12898520,-0.95751541
1314889337.70731378,0.25784849,-0.12892531,-0.95754500
1314889337.75587749,0.25776096,-0.12886341,-0.95757689
1314889337.80731916,0.25807957,-0.12924542,-0.95743959
1314889337.85519671,0.25806207,-0.12947119,-0.95741380
1314889337.90833235,0.25775012,-0.12930752,-0.95751994
1314889337.95633769,0.25790025,-0.12937088,-0.95747096
1314889338.00762415,0.25805076,-0.12911348,-0.95746515
1314889338.05975795,0.25824182,-0.12922162,-0.95739905
1314889338.10775876,0.25828145,-0.12900703,-0.95741730
1314889338.15575600,0.25835106,-0.12875181,-0.95743287
1314889338.20766330,0.25818259,-0.12851711,-0.95750985
1314889338.25560999,0.25804189,-0.12842261,-0.95756045
1314889338.30720687,0.25818457,-0.12867124,-0.95748861
1314889338.35562396,0.25801454,-0.12857546,-0.95754731
1314889338.40834045,0.25792397,-0.12882075,-0.95753874
1314889338.45633554,0.25780422,-0.12868366,-0.95758942
1314889338.50731349,0.25798468,-0.12870890,-0.95753743
1314889338.55560851,0.25759221,-0.12874608,-0.95763808
1314889338.60834122,0.25751578,-0.12874165,-0.95765924
1314889338.66020513,0.25734270,-0.12874852,-0.95770484
1314889338.70834470,0.25757119,-0.12833238,-0.95769926
1314889338.75539303,0.25767130,-0.12812404,-0.95770023
1314889338.80723286,0.25771594,-0.12818012,-0.95768072
1314889338.85922956,0.25798470,-0.12804625,-0.95762626
1314889338.90746307,0.25816476,-0.12773200,-0.95761970
1314889338.95925546,0.25833053,-0.12756624,-0.95759709
1314889339.00733685,0.25841707,-0.12780076,-0.95754247
1314889339.05532742,0.25834413,-0.12767136,-0.95757941
1314889339.10730410,0.25828024,-0.12750809,-0.95761840
1314889339.15522695,0.25835021,-0.12763978,-0.95758198
1314889339.20731831,0.25827303,-0.12740995,-0.95763341
1314889339.25522828,0.25814264,-0.12726111,-0.95768835
1314889339.30732393,0.25824310,-0.12718699,-0.95767112
1314889339.35523558,0.25810630,-0.12707177,-0.95772329
1314889339.40722895,0.25811810,-0.12722645,-0.95769957
1314889339.45524192,0.25823395,-0.12696397,-0.95770318
1314889339.51125360,0.25831270,-0.12691867,-0.95768795
1314889339.55524325,0.25845785,-0.12683032,-0.95766049
1314889339.61125588,0.25850935,-0.12687178,-0.95764109
1314889339.65543079,0.25840398,-0.12727168,-0.95761647
1314889339.70719481,0.25829171,-0.12705174,-0.95767596
1314889339.75524497,0.25814246,-0.12710535,-0.95770909
1314889339.80723190,0.25809786,-0.12730644,-0.95769440
1314889339.85619879,0.25822806,-0.12743090,-0.95764275
1314889339.90798068,0.25817377,-0.12743909,-0.95765630
1314889339.95534873,0.25810866,-0.12750342,-0.95766528
1314889340.00720787,0.25835070,-0.12778137,-0.95756297
1314889340.05591393,0.25797424,-0.12789046,-0.95764989
1314889340.10727882,0.25796591,-0.12784887,-0.95765769
1314889340.15595698,0.25808930,-0.12747817,-0.95767386
1314889340.20735836,0.25788101,-0.12741101,-0.95773891
1314889340.25595784,0.25772880,-0.12729293,-0.95779558
1314889340.30822611,0.25747607,-0.12737526,-0.95785261
1314889340.35524297,0.25731769,-0.12740091,-0.95789176
1314889340.40725207,0.25738206,-0.12711938,-0.95791186
1314889340.45592117,0.25729343,-0.12680571,-0.95797724
1314889340.50723886,0.25741832,-0.12666206,-0.95796270
1314889340.55633497,0.25762654,-0.12653637,-0.95792333
1314889340.60828376,0.25772077,-0.12658017,-0.95789220
1314889340.65930772,0.25781274,-0.12645977,-0.95788335
1314889340.70823193,0.25806898,-0.12638193,-0.95782462
1314889340.75590205,0.25814085,-0.12627852,-0.95781889
1314889340.81136084,0.25839664,-0.12651116,-0.95771922
1314889340.85521626,0.25826409,-0.12651014,-0.95775511
1314889340.90822768,0.25821239,-0.12656221,-0.95776217
1314889340.95931435,0.25792556,-0.12655915,-0.95783985
1314889341.00836205,0.25795308,-0.12647075,-0.95784412
1314889341.05634332,0.25831496,-0.12688394,-0.95769194
1314889341.10735059,0.25826493,-0.12685444,-0.95770934
1314889341.15565681,0.25804927,-0.12677879,-0.95777749
1314889341.20823836,0.25810755,-0.12692567,-0.95774233
1314889341.25935364,0.25802893,-0.12694601,-0.95776082
1314889341.30825329,0.25787217,-0.12716049,-0.95777458
1314889341.35632443,0.25787735,-0.12699099,-0.95779568
1314889341.40731287,0.25762639,-0.12697016,-0.95786597
1314889341.45934939,0.25762495,-0.12703363,-0.95785795
1314889341.50731707,0.25726064,-0.12718001,-0.95793643
1314889341.55944490,0.25730412,-0.12738270,-0.95789782
1314889341.60831618,0.25703606,-0.12727828,-0.95798367
1314889341.65637541,0.25686072,-0.12714134,-0.95804888
1314889341.70728874,0.25687659,-0.12721817,-0.95803442
1314889341.75938225,0.25667176,-0.12711979,-0.95810238
1314889341.80823326,0.25682519,-0.12721006,-0.95804928
1314889341.85639429,0.25679698,-0.12703736,-0.95807976
1314889341.90542769,0.25684086,-0.12678856,-0.95810095
1314889341.95632935,0.25703748,-0.12677683,-0.95804977
1314889342.00828862,0.25697217,-0.12656609,-0.95809516
1314889342.05532217,0.25725595,-0.12692391,-0.95797166
1314889342.10733414,0.25721009,-0.12683371,-0.95799592
1314889342.15524054,0.25717500,-0.12682933,-0.95800592
1314889342.20838046,0.25688426,-0.12684207,-0.95808223
1314889342.25526810,0.25703449,-0.12679695,-0.95804791
1314889342.30827665,0.25689852,-0.12709498,-0.95804489
1314889342.35526514,0.25677787,-0.12718627,-0.95806512
1314889342.40825963,0.25703606,-0.12717903,-0.95799685
1314889342.45924878,0.25698345,-0.12724312,-0.95800245
1314889342.50825286,0.25700064,-0.12709925,-0.95801694
1314889342.55626106,0.25757814,-0.12747742,-0.95781157
1314889342.60842466,0.25740680,-0.12744759,-0.95786160
1314889342.65625215,0.25723381,-0.12731790,-0.95792532
1314889342.70817494,0.25737696,-0.12731162,-0.95788770
1314889342.75536227,0.25732351,-0.12718885,-0.95791837
1314889342.80824971,0.25799782,-0.12821878,-0.95759964
1314889342.85627127,0.25799625,-0.12813730,-0.95761097
1314889342.90977907,0.25756277,-0.12797054,-0.95774995
1314889342.95932937,0.25770923,-0.12796375,-0.95771146
1314889343.00831676,0.25769301,-0.12789275,-0.95772530
1314889343.05931020,0.25825298,-0.12851777,-0.95749077
1314889343.10722613,0.25811579,-0.12872293,-0.95750021
1314889343.15627956,0.25823667,-0.12871768,-0.95746832
1314889343.20827055,0.25801562,-0.12858636,-0.95754555
1314889343.25585270,0.25806231,-0.12853308,-0.95754013
1314889343.30725145,0.25816032,-0.12923826,-0.95741878
1314889343.35646033,0.25803248,-0.12923769,-0.95745332
1314889343.40720010,0.25801844,-0.12940627,-0.95743433
1314889343.45631218,0.25816167,-0.12928236,-0.95741246
1314889343.50834537,0.25824159,-0.12922065,-0.95739924
1314889343.55622840,0.25822323,-0.12947961,-0.95736920
1314889343.60809731,0.25827415,-0.12929846,-0.95737995
1314889343.65657306,0.25831793,-0.12923430,-0.95737680
1314889343.70725799,0.25806587,-0.12912697,-0.95745926
1314889343.75580215,0.25811370,-0.12887208,-0.95748071
1314889343.80727434,0.25754782,-0.12857602,-0.95767287
1314889343.85633254,0.25748865,-0.12840907,-0.95771118
1314889343.90726471,0.25736605,-0.12828242,-0.95776111
1314889343.95540714,0.25743223,-0.12829302,-0.95774190
1314889344.00734663,0.25747158,-0.12821595,-0.95774164
1314889344.05579138,0.25804413,-0.12836693,-0.95756731
1314889344.10824895,0.25823839,-0.12821625,-0.95753513
1314889344.15633678,0.25814002,-0.12818611,-0.95756569
1314889344.20734048,0.25837269,-0.12816649,-0.95750556
1314889344.25566125,0.25832227,-0.12833026,-0.95749723
1314889344.30729580,0.25799515,-0.12820940,-0.95760162
1314889344.35634089,0.25825005,-0.12819181,-0.95753526
1314889344.40730309,0.25840934,-0.12825922,-0.95748326
1314889344.46033120,0.25847881,-0.12807109,-0.95748969
1314889344.50723982,0.25855593,-0.12797234,-0.95748207
1314889344.55555725,0.25880465,-0.12812470,-0.95739449
1314889344.60726976,0.25888339,-0.12811397,-0.95737464
1314889344.65552282,0.25875550,-0.12802909,-0.95742057
1314889344.70732450,0.25861038,-0.12807486,-0.95745365
1314889344.75552297,0.25860138,-0.12778486,-0.95749483
1314889344.80989575,0.25937721,-0.12816518,-0.95723411
1314889344.86033368,0.25918682,-0.12808230,-0.95729678
1314889344.90732288,0.25916950,-0.12801164,-0.95731092
1314889344.95530891,0.25925957,-0.12800203,-0.95728781
1314889345.00756145,0.25910199,-0.12793769,-0.95733907
1314889345.05632520,0.25945417,-0.12818129,-0.95721110
1314889345.10725164,0.25924839,-0.12797956,-0.95729384
1314889345.15648794,0.25939911,-0.12801691,-0.95724802
1314889345.20810604,0.25943767,-0.12813967,-0.95722115
1314889345.25525022,0.25942759,-0.12821688,-0.95721354
1314889345.30731773,0.26031274,-0.12890702,-0.95688048
1314889345.35525727,0.26029268,-0.12907752,-0.95686296
1314889345.40725040,0.26032659,-0.12880948,-0.95688985
1314889345.45524740,0.26004973,-0.12891710,-0.95695064
1314889345.50729489,0.26009857,-0.12923908,-0.95689393
1314889345.55524254,0.25995844,-0.12937116,-0.95691416
1314889345.61131287,0.25999022,-0.12942840,-0.95689779
1314889345.65727234,0.26012860,-0.12914297,-0.95689874
1314889345.70678020,0.26018392,-0.12921949,-0.95687337
1314889345.75612211,0.26017564,-0.12913606,-0.95688689
1314889345.80787873,0.25975830,-0.12884939,-0.95703890
1314889345.85524035,0.25995996,-0.12879255,-0.95699180
1314889345.90824604,0.25989885,-0.12850688,-0.95704680
1314889345.95612764,0.25979209,-0.12858038,-0.95706591
1314889346.00819445,0.25974865,-0.12841971,-0.95709927
1314889346.05611873,0.25974626,-0.12813552,-0.95713801
1314889346.10806847,0.25977305,-0.12812615,-0.95713199
1314889346.15531731,0.25973804,-0.12798654,-0.95716017
1314889346.20740533,0.25982084,-0.12822642,-0.95710559
1314889346.25597978,0.25986442,-0.12810565,-0.95710993
1314889346.30732012,0.25981262,-0.12820601,-0.95711056
1314889346.35596275,0.25968045,-0.12816605,-0.95715178
1314889346.40823317,0.25949200,-0.12816298,-0.95720330
1314889346.45585561,0.25942011,-0.12784917,-0.95726475
1314889346.50832939,0.25936701,-0.12785807,-0.95727795
1314889346.55624104,0.25907554,-0.12785529,-0.95735724
1314889346.60849142,0.25932164,-0.12771163,-0.95730979
1314889346.65583134,0.25933174,-0.12766331,-0.95731350
1314889346.70830488,0.25927281,-0.12762555,-0.95733449
1314889346.75633764,0.25893181,-0.12752256,-0.95744050
1314889346.80834079,0.25936179,-0.12780249,-0.95728678
1314889346.85583854,0.25935644,-0.12765394,-0.95730805
1314889346.90760493,0.25941191,-0.12743444,-0.95732227
1314889346.95569706,0.25947341,-0.12736735,-0.95731453
1314889347.00737977,0.25956361,-0.12716848,-0.95731652
1314889347.05934429,0.25945920,-0.12748604,-0.95730258
1314889347.10762644,0.25933516,-0.12741947,-0.95734506
1314889347.15930533,0.25946925,-0.12724022,-0.95733256
1314889347.20833135,0.25927934,-0.12718353,-0.95739155
1314889347.25969100,0.25925695,-0.12715427,-0.95740150
1314889347.30832267,0.25917831,-0.12726024,-0.95740871
1314889347.35633588,0.25917836,-0.12698679,-0.95744500
1314889347.40822411,0.25931737,-0.12676845,-0.95743630
1314889347.45543814,0.25949662,-0.12660126,-0.95740985
1314889347.50834107,0.25935181,-0.12640708,-0.95747475
1314889347.55922413,0.25960093,-0.12667399,-0.95737195
1314889347.60828924,0.25963142,-0.12680966,-0.95734572
1314889347.66033340,0.25962189,-0.12688836,-0.95733788
1314889347.70834136,0.25945905,-0.12688851,-0.95738201
1314889347.75534987,0.25957990,-0.12713571,-0.95731645
1314889347.80835915,0.25965255,-0.12733137,-0.95727074
1314889347.85534716,0.25931902,-0.12730312,-0.95736491
1314889347.90834165,0.25905729,-0.12745972,-0.95741493
1314889347.95534158,0.25913695,-0.12769867,-0.95736152
1314889348.00730371,0.25919501,-0.12757611,-0.95736215
1314889348.05539656,0.25898440,-0.12750597,-0.95742849
1314889348.10731816,0.25893824,-0.12759683,-0.95742887
1314889348.15633702,0.25904268,-0.12773555,-0.95738212
1314889348.20727658,0.25935714,-0.12749668,-0.95732882
1314889348.25617862,0.25949158,-0.12728920,-0.95732000
1314889348.30589795,0.25947402,-0.12727701,-0.95732638
1314889348.35527492,0.25938320,-0.12735165,-0.95734106
1314889348.40726471,0.25947429,-0.12720013,-0.95733652
1314889348.45526433,0.25950150,-0.12729336,-0.95731675
1314889348.50728273,0.25929533,-0.12734945,-0.95736516
1314889348.55521941,0.25945798,-0.12741294,-0.95731264
1314889348.61127019,0.25933467,-0.12709530,-0.95738828
1314889348.65518308,0.25919431,-0.12694536,-0.95744618
1314889348.70824981,0.25905503,-0.12676038,-0.95750838
1314889348.75615048,0.25910894,-0.12690101,-0.95747516
1314889348.80507851,0.25860719,-0.12687287,-0.95761453
1314889348.85530949,0.25848308,-0.12677799,-0.95766061
1314889348.90512419,0.25838587,-0.12678569,-0.95768582
1314889348.95622778,0.25848320,-0.12694532,-0.95763841
1314889349.00731039,0.25840423,-0.12697832,-0.95765534
1314889349.05531764,0.25881839,-0.12714084,-0.95752193
1314889349.10577250,0.25880336,-0.12709940,-0.95753150
1314889349.15623331,0.25886145,-0.12710905,-0.95751451
1314889349.20732951,0.25891617,-0.12713829,-0.95749583
1314889349.25589776,0.25904650,-0.12713954,-0.95746042
1314889349.30725193,0.25896671,-0.12753215,-0.95742978
1314889349.35531282,0.25902261,-0.12746243,-0.95742395
1314889349.40731025,0.25908694,-0.12748155,-0.95740400
1314889349.45586872,0.25928607,-0.12732429,-0.95737101
1314889349.50724196,0.25926909,-0.12748473,-0.95735426
1314889349.55587387,0.25983061,-0.12776862,-0.95716416
1314889349.60841274,0.25981368,-0.12772289,-0.95717486
1314889349.65541077,0.25984241,-0.12779304,-0.95715770
1314889349.70731640,0.25984465,-0.12764872,-0.95717635
1314889349.75585628,0.25990309,-0.12766308,-0.95715857
1314889349.80833864,0.26003251,-0.12758927,-0.95713326
1314889349.85531783,0.26001423,-0.12750689,-0.95714920
1314889349.90834808,0.25985238,-0.12753711,-0.95718913
1314889349.95931387,0.26004935,-0.12723884,-0.95717533
1314889350.00810957,0.26000855,-0.12716238,-0.95719658
1314889350.05619979,0.26011233,-0.12723476,-0.95715876
1314889350.10822392,0.26009579,-0.12736779,-0.95714556
